Wind_Speed
31 30 30 29 28 27 26 25 25 27 27 26 24 24 25 25 24 24 25 26 26 25 25 26 28 28 28 28 27 26 25 25 25 24 23 22 22 21 20 19 18 17 16 15 13 12 10 10 9 10 10 9 8 7 7 6 4 3 3 3 3 3 4 4 4 4 5 5 5
31 31 30 29 28 27 25 24 25 26 26 25 24 24 25 24 24 25 26 26 25 25 25 26 27 28 28 28 27 26 25 25 24 24 23 22 21 20 20 19 18 17 16 15 14 12 10 9 8 8 8 8 8 7 6 4 3 3 3 3 2 3 4 5 5 5 5 5 5
31 31 30 30 29 28 26 25 26 26 25 24 23 24 24 24 24 25 25 25 25 25 26 26 27 28 28 27 26 25 24 24 24 24 23 22 21 20 19 18 17 16 16 15 13 12 10 8 7 6 6 7 7 6 5 4 3 2 3 3 3 4 5 5 6 5 5 5 6
31 30 30 30 30 29 28 27 27 27 25 23 23 23 23 23 23 24 24 25 25 26 27 27 28 28 28 27 26 25 24 24 24 24 23 22 21 20 19 18 17 16 15 14 13 11 9 7 6 5 5 6 6 5 5 4 3 2 2 3 4 5 6 6 6 5 5 6 6
30 29 29 30 30 30 29 30 29 28 25 24 24 23 23 21 22 23 24 25 27 27 28 28 27 27 27 26 25 24 24 24 24 24 23 22 21 20 19 18 17 16 15 14 13 11 10 8 6 5 5 6 6 5 5 5 4 3 3 3 4 5 6 6 6 6 6 6 7
28 28 29 29 30 29 29 30 29 27 25 24 24 23 22 22 22 24 26 28 28 28 27 27 26 26 27 26 25 24 24 24 24 24 23 22 21 20 19 18 17 16 15 14 13 11 10 8 7 6 6 6 6 6 5 5 5 4 3 3 4 5 6 6 6 6 6 7 8
28 28 28 29 29 29 29 29 27 26 24 23 23 23 23 23 25 27 29 29 29 27 26 25 25 26 27 27 26 25 25 25 24 23 22 22 21 20 19 18 17 15 14 13 12 11 9 7 6 6 6 6 6 6 6 5 5 4 3 3 3 4 6 6 6 7 7 8 8
28 28 28 28 29 29 29 27 26 24 23 22 22 23 24 25 27 29 29 29 28 27 25 25 25 27 28 28 27 26 26 25 24 23 22 21 20 19 18 17 16 14 13 12 11 10 9 7 6 5 5 5 5 5 5 5 4 4 3 3 3 4 5 6 7 8 8 9 9
27 27 27 27 28 28 27 26 24 23 22 22 22 23 25 26 28 29 28 28 27 26 25 25 26 28 29 28 27 26 26 25 25 23 22 21 20 19 18 16 15 13 12 11 10 9 8 7 6 5 4 3 3 4 4 4 4 4 4 4 4 5 6 7 7 8 9 9 10
26 27 27 27 27 27 26 24 23 22 21 22 23 24 25 26 27 28 27 27 26 25 25 26 27 28 28 27 27 26 26 25 25 23 22 21 20 18 17 16 14 13 12 11 10 9 7 7 6 5 4 3 3 3 4 4 4 4 4 5 5 5 6 7 8 9 9 10 11
27 27 26 27 27 26 25 23 21 20 21 22 23 24 25 25 26 26 26 26 25 24 25 26 28 28 27 27 26 26 25 25 24 23 22 20 19 18 16 15 13 13 12 11 10 9 8 7 6 5 4 3 3 3 3 4 4 5 5 5 6 7 7 8 9 9 10 11 11
27 26 26 27 27 25 23 22 20 20 21 22 24 24 25 25 26 25 25 25 24 24 25 27 27 27 27 26 26 25 25 24 23 22 21 20 18 17 15 14 13 12 11 11 10 9 8 7 6 6 5 4 3 3 3 3 4 4 5 6 7 8 8 9 9 10 10 10 11
27 26 26 26 26 24 22 21 20 21 22 23 24 24 25 25 25 25 25 25 25 25 26 26 27 27 27 26 25 25 24 23 22 21 20 19 18 16 15 14 12 11 10 10 9 9 8 7 7 6 5 4 3 3 3 3 4 5 6 6 7 8 9 9 10 10 10 11 11
26 26 26 26 25 23 21 20 21 22 23 24 25 25 25 25 25 25 25 26 26 26 26 26 26 26 26 26 25 24 24 23 22 21 19 18 17 16 15 14 12 11 10 9 8 8 8 7 6 6 5 4 3 3 3 4 5 5 6 7 8 9 9 10 10 10 11 11 12
25 25 25 25 23 21 21 21 22 23 24 25 25 25 26 26 26 26 27 27 27 27 27 26 25 25 25 25 24 24 23 22 21 20 19 18 16 15 14 13 12 10 9 8 7 7 6 6 5 4 4 3 3 3 4 4 5 6 7 8 9 9 10 10 10 11 11 12 12
24 24 24 23 22 21 21 22 22 24 25 25 25 25 26 25 26 27 28 28 27 27 27 26 26 25 24 24 23 23 22 22 21 20 18 17 16 15 14 13 11 10 8 7 6 6 5 4 3 2 2 2 3 3 4 5 5 6 7 8 9 9 10 10 11 11 11 12 12
23 23 23 22 22 22 22 22 23 24 25 25 26 26 25 26 26 27 28 27 27 27 27 26 26 26 25 24 23 22 22 21 20 19 17 16 15 14 13 12 11 10 8 7 6 5 4 3 2 1 1 2 3 4 5 5 6 7 8 8 9 10 10 11 11 12 12 12 13
23 22 22 22 22 22 23 23 23 24 25 26 26 26 26 26 27 27 27 27 27 27 27 27 26 26 25 24 23 21 21 20 19 18 17 16 15 14 13 12 11 10 9 8 7 6 5 3 2 2 2 3 4 5 5 6 7 8 8 9 10 10 11 11 11 12 12 13 13
22 22 22 22 22 23 23 23 24 25 25 26 26 27 27 27 28 27 27 27 27 27 28 27 27 26 25 24 22 21 20 19 18 17 16 15 14 13 12 11 10 9 8 8 7 6 5 4 3 2 2 3 4 5 6 7 8 8 9 10 10 11 11 12 12 12 13 13 13
22 22 22 22 23 23 24 24 24 25 26 26 27 28 28 28 28 28 27 27 27 27 28 28 27 26 24 23 22 21 20 19 18 17 16 15 13 12 11 10 9 8 7 7 6 5 3 2 2 2 2 3 4 5 6 7 8 9 10 10 11 12 12 12 13 13 13 13 13
22 22 22 23 23 24 24 24 24 25 26 27 27 28 28 28 28 28 27 27 27 27 27 27 26 25 24 23 22 21 20 19 18 17 16 14 12 11 10 9 8 8 7 6 5 3 2 1 1 2 3 3 4 5 6 7 8 9 10 10 11 12 12 12 13 13 13 14 13
22 22 23 24 24 24 24 24 24 25 25 26 26 26 27 28 28 28 27 27 27 27 27 26 25 24 23 22 22 21 20 18 17 16 14 13 11 10 9 8 8 7 6 4 3 1 0 1 2 3 3 3 3 4 5 7 8 9 10 10 11 11 12 12 13 13 13 13 14
23 23 24 25 25 25 25 24 24 25 25 25 25 26 27 27 27 27 27 27 27 27 26 25 24 23 22 21 21 20 18 17 16 14 13 12 11 10 9 8 7 6 4 2 1 1 2 3 3 3 3 4 4 4 5 6 8 9 10 10 11 12 12 13 13 13 14 14 14
25 25 25 25 25 25 24 24 25 25 25 25 25 26 27 27 27 27 27 27 26 26 25 24 23 22 21 20 19 18 17 16 15 13 12 11 10 10 9 7 6 4 2 1 2 3 4 4 4 4 4 4 5 5 6 7 8 9 10 11 12 13 13 13 14 14 14 14 14
26 26 26 25 25 25 25 25 25 25 25 25 26 27 27 27 27 27 27 26 26 25 24 23 22 21 20 19 17 16 15 15 14 13 12 11 10 9 8 6 4 2 1 2 3 4 4 4 4 4 5 5 6 7 7 8 9 10 11 12 13 13 14 14 14 14 14 14 13
27 26 26 25 25 25 25 25 25 25 25 26 27 27 26 26 26 26 27 26 25 24 23 22 21 20 19 18 17 16 15 14 13 12 11 10 10 9 7 5 3 1 2 3 4 5 5 5 4 5 5 6 7 8 9 9 10 11 11 12 13 13 14 14 14 14 14 13 12
26 26 25 26 26 26 26 26 26 26 26 27 27 26 26 26 26 26 27 26 25 24 23 22 20 19 18 17 16 15 14 13 12 11 10 9 9 8 7 5 2 1 2 3 4 5 5 5 4 4 5 6 8 9 10 11 11 12 12 12 12 13 13 14 15 14 14 13 12
25 25 26 26 26 27 27 27 27 27 27 27 27 26 26 26 26 27 27 26 25 23 22 21 20 19 18 17 16 14 13 12 11 10 8 7 7 7 6 4 1 1 3 3 4 5 6 6 5 5 5 6 8 9 11 12 12 13 13 13 13 13 13 14 14 14 14 13 12
25 26 26 27 27 27 27 27 27 27 27 27 27 27 27 27 27 27 26 25 24 23 21 20 19 18 17 16 15 13 12 11 9 8 7 6 6 5 5 3 1 2 4 4 5 6 7 7 7 6 6 7 8 10 11 12 13 13 13 13 13 13 13 14 14 14 14 13 13
25 25 26 27 27 28 28 28 28 27 27 27 27 27 27 27 26 26 25 24 23 22 21 19 18 17 16 15 14 12 11 10 8 7 6 5 5 4 4 2 1 3 4 5 5 6 8 8 8 8 7 7 8 10 11 12 13 13 13 13 13 13 13 14 14 14 14 14 13
24 25 26 26 27 27 28 28 28 27 27 26 26 26 26 26 25 25 24 23 22 21 20 18 18 17 15 13 12 11 10 8 7 6 5 5 4 3 3 2 1 3 5 5 6 7 8 9 9 9 8 8 9 10 11 12 12 12 13 13 13 14 14 14 14 14 14 13 13
24 24 24 25 25 26 27 28 28 27 26 25 25 25 25 25 25 24 24 23 22 20 19 18 17 15 14 12 11 9 8 7 6 5 4 4 3 3 3 2 2 3 5 6 6 7 8 10 10 10 9 9 10 11 11 12 12 12 12 13 13 14 14 14 14 14 13 13 13
24 24 24 24 24 25 26 26 26 26 25 25 25 26 26 26 25 24 23 22 20 19 18 17 15 14 13 11 10 8 7 6 5 5 4 4 4 4 3 2 1 4 6 6 7 8 9 10 11 10 10 10 10 11 11 11 11 11 12 12 13 13 13 13 13 13 12 12 12
24 24 24 24 24 24 25 25 25 25 26 26 26 26 26 26 25 24 23 21 19 18 16 15 14 13 11 10 9 8 7 6 5 4 4 4 3 3 2 1 1 4 6 7 8 8 9 10 11 10 10 10 10 11 10 10 11 11 12 12 12 12 12 12 12 12 12 11 11
24 24 24 24 24 24 24 25 25 26 26 26 26 26 26 25 24 23 21 19 18 16 15 14 12 11 10 9 8 7 6 5 4 3 3 3 2 2 2 1 1 3 6 7 8 8 9 10 10 10 10 10 11 10 10 10 11 11 11 11 11 11 11 11 11 11 10 10 10
24 24 23 23 23 24 24 25 26 26 26 26 26 26 25 23 22 20 18 17 16 15 14 13 12 11 10 9 7 7 6 5 4 3 2 1 1 1 1 1 0 2 4 6 7 8 9 9 9 9 10 10 11 11 10 10 10 11 11 11 11 11 11 10 10 10 10 10 11
23 23 23 23 23 23 24 25 26 27 26 26 26 25 23 22 20 18 16 15 15 15 13 12 11 10 9 8 7 6 5 4 4 3 2 1 0 1 1 2 1 1 3 4 6 7 8 9 9 9 10 10 11 11 10 10 10 10 11 11 11 11 10 10 10 10 11 11 12
23 23 23 23 23 23 24 25 26 27 27 26 25 23 21 20 18 17 16 15 15 14 13 11 10 9 8 7 5 4 3 2 2 2 2 1 1 2 4 4 3 2 2 3 5 6 7 8 8 9 9 10 10 10 10 10 10 10 11 11 11 11 10 10 11 11 12 12 13
23 23 24 24 24 25 25 26 26 26 26 25 23 21 20 19 17 16 15 14 14 13 12 10 9 8 7 6 4 3 2 1 1 1 1 0 2 4 5 5 4 3 3 3 5 6 7 8 8 9 9 9 10 10 10 10 10 11 11 11 11 11 11 11 12 12 13 13 14
23 24 24 25 26 26 26 26 26 25 24 23 22 20 19 18 17 15 14 13 12 12 11 9 8 8 7 6 5 3 2 0 1 2 2 3 4 5 6 5 4 3 3 3 5 6 7 8 8 8 8 9 9 10 10 10 10 11 11 11 11 12 12 12 13 13 14 14 14
24 25 25 26 26 26 26 25 24 23 22 22 21 20 19 18 17 15 14 13 12 10 9 8 8 7 7 6 5 4 2 1 1 2 3 4 5 5 6 5 4 3 3 4 5 7 7 8 8 8 8 8 9 9 9 10 10 11 11 12 12 13 13 14 14 14 14 14 14
Wind_Direction
162 162 162 161 159 158 158 159 161 161 161 160 160 161 163 164 165 167 169 168 166 163 161 162 161 160 161 163 165 166 166 166 164 163 162 161 161 161 160 159 158 157 155 153 153 155 157 156 156 156 158 161 167 179 193 204 207 196 186 191 204 216 224 234 240 245 251 258 266
160 161 161 159 158 157 156 156 158 160 160 161 161 161 163 165 166 167 168 167 166 164 162 161 161 161 161 163 165 167 167 166 164 162 162 162 162 162 161 159 157 156 154 153 155 158 161 161 157 156 157 162 170 182 195 204 202 183 174 184 209 231 240 243 246 248 250 253 258
158 158 158 157 156 155 154 155 156 157 158 159 160 161 162 164 165 165 165 165 166 164 162 160 161 162 162 163 165 167 168 166 164 162 162 162 163 162 161 158 156 154 153 154 156 160 163 163 158 151 149 154 162 173 188 202 205 189 177 184 206 229 241 247 253 255 255 254 255
155 156 156 156 156 156 155 155 155 155 155 156 156 158 159 161 162 163 164 164 165 164 163 161 161 162 162 163 165 167 167 166 164 162 161 162 163 162 159 156 154 153 153 154 157 159 162 164 159 148 140 141 149 165 183 201 211 210 200 199 212 227 239 247 253 256 256 255 257
152 154 155 156 157 156 156 156 155 154 154 154 154 156 158 160 161 162 163 165 166 165 164 162 160 161 162 164 165 165 165 164 162 161 161 161 162 160 158 155 153 153 153 155 156 159 163 165 161 151 141 140 149 166 185 201 209 217 222 227 232 239 247 252 253 253 253 256 260
150 152 154 155 156 156 156 156 155 154 154 154 155 157 159 161 162 162 164 166 167 165 163 160 158 159 162 165 165 164 162 161 160 159 160 160 160 159 156 155 154 154 155 156 157 160 163 166 162 154 148 152 160 173 188 202 208 215 224 236 247 256 260 261 258 256 257 260 265
148 150 152 154 155 155 155 155 154 154 154 155 157 159 161 162 162 163 165 165 164 162 160 158 156 159 163 165 164 162 160 158 157 157 158 158 158 157 157 156 156 156 156 157 158 159 162 163 159 154 153 162 171 180 192 206 215 221 226 232 245 258 264 265 263 262 263 266 269
147 149 152 153 155 154 154 153 153 154 155 156 159 161 162 162 162 163 163 161 160 159 158 157 157 160 163 163 161 159 157 155 154 155 156 157 157 157 157 157 156 155 155 154 155 156 157 157 153 150 154 165 176 184 194 210 223 234 239 242 244 251 258 263 264 266 268 271 273
145 148 151 152 153 153 152 152 153 153 154 156 159 160 161 161 161 160 159 158 158 157 156 157 158 161 162 160 159 157 155 153 152 153 155 156 157 157 157 156 155 152 150 149 149 151 152 152 149 148 153 167 177 185 194 211 229 244 257 264 261 257 255 260 264 268 271 273 274
145 147 149 150 151 152 151 151 152 152 153 155 157 159 159 159 159 158 157 156 155 155 155 158 159 159 158 157 155 154 152 151 151 152 154 156 157 157 156 154 151 148 146 145 147 149 151 149 144 147 155 172 182 190 201 216 234 250 263 274 275 271 265 263 265 268 272 274 275
147 149 150 150 150 150 150 149 149 151 152 154 157 158 158 157 157 158 157 154 152 153 155 157 158 157 155 153 152 151 150 149 150 152 154 156 157 156 154 151 149 146 145 146 149 152 151 147 144 149 160 178 194 204 214 228 244 257 265 272 276 275 273 272 272 273 275 276 277
149 150 150 150 150 149 148 148 149 151 152 154 156 157 157 157 157 155 154 152 151 153 155 156 156 154 152 150 149 148 147 148 149 152 154 155 155 153 151 148 147 147 147 150 152 154 152 148 148 154 165 182 199 213 228 241 253 261 266 270 273 274 276 277 279 280 280 281 280
149 149 149 148 148 147 147 147 149 151 153 154 155 155 155 156 155 153 151 151 151 152 153 154 152 150 149 148 147 146 146 147 149 151 153 153 152 150 147 147 148 149 150 152 153 153 153 151 153 159 169 182 197 213 230 244 255 263 268 271 273 275 278 280 282 284 284 283 282
147 146 146 146 146 146 146 148 150 151 153 153 153 152 152 152 153 152 150 150 150 150 149 149 148 147 146 146 145 144 144 146 148 150 151 151 149 147 146 147 149 151 151 150 149 150 151 154 159 165 174 185 198 214 229 244 255 264 271 275 277 279 280 282 284 285 285 285 285
144 144 144 144 144 145 147 148 149 150 150 150 149 149 149 149 150 151 151 150 149 147 146 144 143 143 143 143 143 143 144 145 148 149 149 148 147 146 146 147 149 150 148 145 143 143 148 152 160 169 181 196 213 230 242 252 261 267 272 276 279 281 283 284 285 286 286 287 287
142 142 143 144 145 146 146 147 148 147 147 146 146 147 146 147 148 150 150 148 145 144 142 141 139 139 140 140 141 142 143 146 147 147 146 145 144 143 144 144 145 145 143 138 134 132 136 144 153 171 199 229 252 263 269 273 274 275 276 278 280 282 284 286 287 287 287 287 287
141 142 143 144 145 145 146 146 146 145 144 143 144 144 144 144 145 146 147 144 142 141 139 138 138 137 137 138 140 142 143 145 145 144 142 141 140 140 141 142 143 143 141 135 130 127 128 133 146 190 256 278 286 289 291 290 288 285 283 282 282 284 286 287 288 288 288 288 287
140 142 143 144 144 145 145 145 144 142 141 141 142 142 142 142 142 142 142 142 141 139 137 136 136 136 136 136 138 140 141 141 140 138 137 137 139 140 142 143 145 145 143 140 137 138 141 150 167 208 254 277 286 290 292 292 290 289 288 287 286 286 287 287 288 288 288 288 288
140 141 142 143 143 143 143 143 142 140 140 140 140 141 141 140 139 139 140 141 141 139 136 134 134 133 133 134 135 136 137 136 135 134 134 137 139 142 143 143 143 142 141 141 142 145 151 161 179 213 250 271 279 285 288 289 290 290 290 290 289 288 288 288 288 288 288 289 288
139 140 141 142 142 142 142 141 139 138 138 138 139 138 138 138 138 138 139 139 138 137 134 132 131 130 130 131 132 132 133 134 134 135 136 139 141 142 141 138 135 132 131 133 135 140 149 165 195 239 263 277 286 291 294 295 295 295 294 293 292 291 290 290 290 289 289 288 288
138 139 140 141 140 140 139 138 137 136 135 135 135 135 135 136 137 137 136 136 134 133 131 129 129 129 129 131 131 133 134 137 138 138 139 141 140 138 134 130 125 123 124 127 133 141 155 193 242 262 272 281 293 300 303 303 301 299 297 296 294 294 293 293 292 291 290 289 288
136 137 138 138 137 136 135 135 135 134 133 132 131 132 132 133 133 133 132 131 130 128 127 127 128 129 131 133 134 135 137 138 139 139 139 137 133 129 125 122 121 122 126 133 139 148 231 286 285 281 277 280 289 295 299 300 299 298 297 295 294 293 293 293 294 293 292 291 289
133 133 132 132 132 132 132 132 132 131 130 129 128 128 129 129 129 128 128 127 126 125 125 126 128 131 134 136 137 137 136 135 134 133 130 126 122 119 117 117 120 126 131 128 87 11 344 327 311 298 286 281 282 285 289 292 294 295 295 294 293 292 291 292 292 292 292 292 291
127 127 128 128 129 130 130 130 130 129 127 126 126 126 126 125 125 124 124 123 123 123 124 125 128 131 134 135 135 133 131 128 126 123 119 116 113 111 111 113 119 122 112 55 16 0 347 337 325 314 304 295 289 288 288 289 292 293 294 294 294 293 292 292 292 292 292 292 292
124 126 126 128 128 129 129 129 128 126 124 124 124 124 123 122 121 121 120 119 120 121 123 125 127 130 131 130 128 126 123 121 118 116 113 109 107 106 108 113 115 106 40 12 0 351 344 338 333 327 320 312 307 302 299 296 296 296 296 295 295 295 295 295 294 294 293 293 293
125 126 127 128 128 128 128 126 124 123 122 122 122 121 120 119 119 118 118 118 119 121 122 124 125 126 126 124 123 120 118 115 113 110 108 107 106 107 112 119 119 75 357 348 346 345 345 342 340 335 327 319 315 311 307 304 303 302 301 300 299 298 299 299 299 298 296 293 292
126 127 128 128 127 126 125 124 122 122 122 122 121 119 118 118 118 118 118 118 119 121 122 122 123 123 123 122 120 118 115 112 108 105 102 102 105 111 118 124 126 350 327 328 334 340 344 346 345 337 328 319 314 311 309 308 307 307 306 305 303 302 301 301 301 300 297 294 292
126 127 127 126 124 123 123 122 122 122 122 121 120 119 119 119 119 118 118 119 120 121 121 121 123 123 121 118 116 113 110 107 103 99 95 95 100 108 116 122 133 296 304 310 324 336 344 346 344 338 329 320 313 310 309 309 310 310 309 307 305 302 301 301 301 300 299 297 296
127 127 126 124 123 123 123 123 123 122 122 121 121 120 120 120 119 119 120 121 121 121 121 122 122 120 117 114 111 108 104 100 96 92 89 89 93 100 109 120 158 279 291 300 316 332 342 346 343 337 330 322 314 310 309 310 311 310 308 306 304 302 300 300 300 299 298 297 298
126 126 125 124 124 124 124 124 123 122 121 121 120 120 120 119 119 120 120 121 122 122 122 122 119 116 112 109 107 103 100 96 92 89 87 87 90 96 105 122 202 269 283 294 309 326 338 342 341 337 330 325 317 312 311 311 311 309 308 306 304 303 302 300 299 298 297 297 298
124 124 124 124 124 124 124 123 122 121 121 120 120 120 119 119 118 119 121 122 122 121 120 118 114 111 108 105 103 99 96 94 91 88 86 86 89 96 106 124 200 259 275 289 304 319 331 337 338 336 333 328 321 316 313 312 311 310 309 307 306 305 303 301 300 298 298 298 298
122 122 122 122 122 122 123 122 121 121 121 120 120 119 118 118 119 121 121 121 121 119 117 114 110 107 105 103 100 98 95 93 91 88 83 81 84 92 103 121 201 250 269 285 299 313 325 333 336 337 337 333 325 319 316 315 315 313 312 310 308 306 305 303 301 300 300 300 301
121 121 122 121 121 121 120 120 120 120 120 119 119 118 118 119 120 120 120 119 117 115 113 110 108 106 105 104 102 99 96 93 89 85 80 77 81 88 96 113 225 261 275 288 299 310 321 330 335 339 339 336 328 322 320 320 319 317 315 312 309 307 306 304 304 303 304 304 304
123 124 123 122 121 120 119 118 118 118 118 118 117 118 119 119 119 118 118 117 115 113 111 110 109 108 108 106 104 102 98 93 88 83 82 82 87 93 97 104 268 282 289 296 304 313 322 330 337 341 341 337 331 327 326 326 324 320 317 314 311 309 308 306 306 306 306 307 308
126 125 123 122 120 119 118 117 118 118 117 117 117 118 119 119 118 118 118 117 116 113 111 109 108 106 104 101 99 100 103 104 101 97 95 95 103 111 116 116 308 304 305 308 313 318 326 333 339 343 342 336 332 331 331 329 326 322 318 316 314 313 312 311 310 309 309 310 311
124 122 120 118 117 117 117 118 118 118 117 117 117 118 118 118 117 117 117 116 113 110 107 105 103 103 103 105 108 111 116 122 123 124 121 115 126 141 154 162 298 317 318 319 320 324 329 336 341 344 341 337 334 333 333 330 327 324 321 319 318 317 316 315 314 312 311 311 312
120 120 118 117 117 117 119 120 119 118 118 118 119 119 118 116 115 114 112 111 108 105 104 104 106 110 113 117 121 123 124 127 135 142 146 147 198 286 305 314 312 315 325 326 327 330 335 339 343 344 341 337 335 334 333 331 328 326 324 322 321 319 318 317 316 315 314 314 314
122 122 121 120 120 120 121 121 120 119 119 120 119 118 116 113 111 110 109 107 107 108 110 113 117 122 125 124 124 124 122 119 125 135 143 156 288 319 328 335 339 340 337 337 337 339 342 343 344 343 341 337 334 333 333 332 331 329 327 326 324 321 319 318 318 317 318 318 318
125 125 125 124 123 122 121 120 119 120 120 120 118 116 113 111 110 109 109 109 112 115 118 120 123 126 127 125 123 122 115 92 69 68 78 317 323 333 340 349 358 5 3 354 350 348 346 345 344 344 341 337 335 334 335 335 333 331 330 328 326 324 321 320 321 321 322 321 320
126 126 125 124 123 122 121 120 120 121 120 119 118 116 115 114 113 114 115 116 117 119 119 119 119 120 124 128 134 140 143 107 350 338 331 325 329 335 343 352 1 5 0 353 351 349 347 345 344 344 342 339 337 337 337 337 335 333 331 330 329 327 325 324 323 323 323 321 319
124 123 122 122 122 122 122 121 121 121 121 120 120 119 119 119 120 121 122 123 121 118 115 112 112 115 121 129 137 144 152 166 275 301 308 315 321 329 337 345 348 339 323 323 337 344 346 345 345 344 344 342 340 339 340 339 337 335 333 331 330 328 327 325 324 323 321 319 317
Height
731 734 736 737 739 740 742 744 747 749 750 753 755 757 759 762 764 766 768 769 770 771 772 773 774 775 777 779 781 783 784 784 784 785 787 789 790 791 792 793 794 795 796 797 798 799 800 801 801 802 802 802 803 803 804 804 804 804 805 805 806 806 807 807 807 807 807 807 807
730 733 734 736 738 740 742 744 746 749 751 753 754 756 759 761 763 765 767 768 769 770 771 772 773 775 777 779 781 782 783 784 784 784 786 788 790 791 792 793 794 794 796 797 798 799 799 800 801 801 801 802 802 803 803 804 804 804 804 805 805 806 806 807 807 807 807 807 807
729 732 733 735 736 738 741 743 746 748 750 753 754 756 759 761 763 764 766 767 769 770 771 772 773 775 776 778 780 782 783 783 783 784 786 788 789 791 792 792 793 794 795 797 798 798 799 799 800 800 801 801 802 802 803 803 803 804 804 804 805 806 806 806 806 806 806 806 806
729 731 732 734 735 737 739 742 744 747 749 752 754 756 759 761 762 764 765 767 768 770 771 772 773 774 776 777 779 782 783 783 783 784 785 788 789 791 791 792 793 794 795 796 797 798 799 799 799 800 800 801 802 802 803 803 803 803 804 804 804 805 805 806 806 806 806 806 806
729 730 732 733 734 736 738 741 744 746 749 751 753 756 758 760 762 764 765 767 768 769 770 771 772 773 775 777 779 781 782 783 782 783 785 788 789 791 791 792 793 794 795 796 797 798 798 799 799 799 800 801 801 802 803 803 803 803 803 804 804 804 805 805 805 805 805 805 805
729 730 732 734 735 736 739 741 743 746 748 750 752 755 757 759 761 763 764 766 767 768 769 770 771 772 774 777 779 781 782 782 782 783 785 788 789 791 791 792 793 794 794 795 796 797 798 798 799 799 800 800 801 802 802 802 802 802 803 803 804 804 804 804 804 804 804 804 804
728 730 732 734 735 737 739 741 744 746 748 750 752 754 756 758 760 761 763 764 766 767 769 769 771 772 774 777 779 780 781 781 781 783 785 788 789 790 791 792 793 794 794 795 796 797 797 798 798 799 799 800 801 802 802 802 802 802 802 803 803 804 804 804 804 804 804 804 804
729 731 733 734 735 737 739 742 744 746 748 750 752 754 756 758 759 760 762 763 764 766 768 769 770 772 774 776 778 779 780 780 781 783 786 788 789 790 791 791 792 793 794 795 795 796 797 797 798 798 799 800 800 801 801 801 801 801 802 802 803 803 804 804 803 803 803 803 803
729 731 733 735 736 738 740 742 744 746 748 750 752 754 756 757 759 759 761 762 764 765 767 769 770 772 774 775 777 778 779 779 780 783 786 788 789 790 790 791 792 793 794 794 795 796 796 797 797 798 799 799 800 801 801 801 801 801 801 802 802 802 803 803 803 803 803 802 802
729 732 734 735 737 738 740 742 744 746 748 750 752 754 756 757 758 759 760 762 764 765 767 769 771 772 774 775 777 778 778 779 780 783 786 788 789 789 790 791 792 793 794 794 795 795 796 796 797 798 798 799 800 800 801 801 800 800 801 801 801 802 802 802 802 802 802 802 802
730 732 734 735 737 739 741 743 745 747 749 750 753 755 756 758 758 759 760 762 764 766 768 769 771 772 773 775 776 777 778 779 781 784 786 788 789 789 790 790 791 792 793 794 794 795 795 796 797 797 798 799 799 800 800 800 800 800 800 800 801 801 801 801 801 801 801 801 801
730 732 734 735 737 739 741 743 745 747 749 751 753 755 756 758 758 759 760 762 764 766 769 770 771 772 773 774 776 777 778 779 782 784 786 787 788 789 790 790 791 792 793 793 794 794 795 796 796 797 798 799 799 799 800 800 800 800 800 800 800 800 800 800 800 801 800 800 800
730 732 734 735 737 739 741 743 745 747 749 751 753 755 756 757 758 759 761 763 765 767 769 770 771 772 773 774 775 777 778 780 782 784 786 787 788 789 789 790 791 792 793 793 794 794 795 795 796 797 798 799 799 799 799 799 799 799 799 799 799 800 800 800 800 800 800 800 799
730 732 734 735 737 739 741 744 745 748 749 751 753 754 756 757 758 759 761 763 765 767 769 770 771 772 773 774 775 777 779 781 783 785 786 787 788 789 789 790 791 792 792 793 794 794 794 795 796 797 797 798 798 799 799 799 799 799 799 799 799 799 799 799 799 799 799 799 799
731 732 734 736 738 740 742 744 746 748 749 751 753 754 756 757 759 760 761 763 765 766 768 769 770 772 773 774 776 777 779 782 784 785 786 787 788 789 789 790 791 792 792 793 793 794 794 795 796 796 797 797 798 798 798 798 798 798 798 798 798 798 798 798 798 798 798 798 798
731 733 734 736 738 740 742 744 746 748 749 751 753 755 756 758 759 760 762 764 765 766 767 768 770 772 774 775 776 778 780 782 784 785 786 787 788 789 789 790 791 792 792 793 793 794 794 795 796 796 797 797 797 797 797 797 797 797 798 798 798 798 797 797 797 797 797 797 797
731 733 735 737 739 741 743 744 746 748 750 752 754 755 757 759 760 761 763 764 765 766 767 768 769 771 774 775 777 779 781 783 784 785 786 787 788 789 789 790 791 791 792 793 793 794 794 795 795 796 796 796 796 797 797 797 797 797 797 797 797 797 797 797 797 796 796 796 796
732 734 736 738 739 741 743 745 747 749 751 752 754 756 757 759 761 763 764 766 767 767 767 769 770 772 774 776 778 780 782 783 784 785 786 787 788 789 789 790 791 791 792 792 793 794 794 794 795 795 796 796 796 796 796 796 796 796 796 796 796 796 796 796 796 796 795 795 795
733 735 737 739 740 742 744 746 748 749 751 753 754 756 758 759 761 763 765 767 768 768 768 769 771 773 774 776 779 781 782 784 784 785 786 787 788 788 789 790 790 791 792 792 793 793 794 794 794 795 795 795 795 795 795 795 795 795 795 795 795 795 795 795 795 795 794 794 794
734 736 738 740 742 744 745 747 749 750 752 753 755 756 758 759 761 763 765 767 768 768 768 769 771 773 775 777 779 781 782 783 784 785 786 787 788 788 789 790 790 791 791 792 793 793 793 794 794 794 794 794 795 795 795 795 795 795 794 794 794 794 794 794 794 794 794 794 793
735 737 739 741 743 745 747 749 750 752 753 755 756 758 759 760 762 764 765 767 768 769 769 770 772 774 776 778 779 781 782 783 784 785 786 787 788 788 789 789 790 791 791 792 792 792 793 793 793 794 794 794 794 794 794 794 794 794 794 794 794 794 793 793 793 793 793 793 792
736 739 741 743 744 746 749 750 752 754 755 757 759 760 761 762 763 764 766 767 768 769 770 771 773 775 777 778 779 781 782 783 784 785 786 787 788 788 789 789 790 791 791 791 792 792 792 793 793 793 793 793 793 793 793 793 793 793 793 793 792 792 792 792 792 792 792 792 791
738 740 742 744 746 748 750 752 754 755 757 759 760 762 762 763 764 766 767 768 768 769 771 773 774 776 778 779 780 781 782 783 784 785 786 787 788 788 789 789 790 790 791 791 791 792 792 792 792 792 792 792 792 792 792 792 792 792 792 791 791 791 791 791 791 791 791 790 790
739 741 743 746 748 750 752 754 755 757 758 760 761 763 764 764 765 766 767 768 769 770 772 774 775 777 779 780 781 782 783 784 784 785 786 787 788 788 789 789 790 790 790 791 791 791 792 792 792 792 792 792 792 792 791 791 791 791 791 790 790 790 790 790 790 790 790 789 789
740 743 745 747 749 751 754 755 757 758 759 761 762 764 764 765 766 767 768 769 770 771 773 775 777 778 779 780 782 782 783 784 785 786 786 787 788 788 789 789 790 790 790 791 791 791 791 791 791 791 791 791 791 791 791 790 790 790 790 789 789 789 789 789 789 789 789 789 789
742 744 747 749 750 753 754 756 758 759 760 762 763 764 765 766 766 767 768 769 771 773 774 776 778 779 780 781 782 783 784 784 785 786 787 787 788 788 789 789 789 790 790 790 791 791 791 791 791 791 791 790 790 790 790 790 789 789 789 789 789 788 788 788 788 788 788 788 788
744 746 748 749 751 753 755 757 758 760 761 763 764 764 765 766 767 768 769 770 772 774 775 777 778 779 781 782 783 784 784 785 786 786 787 787 788 789 789 789 789 790 790 790 791 791 791 791 790 790 790 790 790 789 789 789 789 788 788 788 788 787 787 787 787 787 787 787 787
746 747 749 750 752 754 755 757 759 760 762 763 763 764 765 766 767 768 769 771 773 774 776 778 779 780 781 782 783 784 785 785 786 787 787 788 788 789 789 789 789 790 790 790 790 790 790 790 790 790 790 790 789 789 789 788 788 787 787 787 787 787 787 787 787 787 787 786 786
747 748 750 751 752 754 756 758 759 761 762 763 764 764 766 767 768 769 770 772 774 775 776 778 779 780 782 783 784 784 785 786 787 787 788 788 788 789 789 789 789 789 790 790 790 790 790 790 790 789 789 789 789 788 788 787 787 787 786 786 786 786 786 786 786 786 786 785 785
748 749 751 752 753 755 756 758 760 761 762 763 764 765 766 767 768 769 771 772 774 775 777 778 779 781 782 783 784 785 785 786 787 787 788 788 789 789 789 789 789 789 789 789 789 789 789 789 789 789 789 789 788 788 787 787 786 786 786 785 785 785 785 785 785 785 785 785 784
749 751 752 753 754 756 757 758 759 761 763 764 765 766 767 767 769 770 771 773 774 776 778 779 780 781 782 783 784 785 786 786 787 788 788 788 789 789 789 789 789 789 789 789 789 789 789 789 789 788 788 788 787 787 786 786 786 785 785 785 785 785 785 785 785 785 784 784 784
750 752 754 755 756 757 758 758 760 762 763 765 765 766 767 768 769 770 772 773 775 777 778 779 780 781 783 784 784 785 786 787 787 788 788 788 788 789 789 789 789 789 789 789 789 789 789 788 788 788 788 787 787 786 786 785 785 785 784 784 784 784 784 784 784 784 784 783 783
752 754 755 756 758 758 759 759 760 762 763 764 765 766 767 768 769 771 773 774 776 777 778 779 781 782 783 784 784 785 786 787 787 787 788 788 788 789 789 789 789 789 789 789 789 788 788 788 788 787 787 786 786 785 785 785 784 784 784 784 784 784 784 784 784 783 783 783 782
753 754 756 757 758 759 760 760 761 762 763 764 765 766 767 769 770 772 774 775 776 778 779 780 781 782 783 784 784 785 786 786 787 787 788 788 788 789 789 789 789 789 789 788 788 788 788 787 787 787 786 786 785 785 784 784 784 784 784 784 784 783 783 783 783 783 782 782 781
754 756 757 758 759 759 760 761 761 762 764 765 766 767 769 770 771 773 774 776 777 778 779 780 781 782 783 784 784 785 786 786 787 787 788 788 788 788 789 789 789 789 788 788 788 787 787 787 786 786 786 785 785 784 784 784 784 783 783 783 783 783 783 783 782 782 781 781 781
755 756 757 759 759 759 760 761 762 763 764 765 767 769 770 771 773 774 775 776 777 778 779 780 781 782 783 784 785 785 786 786 787 787 788 788 788 788 788 788 788 788 788 787 787 787 787 786 786 786 785 785 784 784 784 783 783 783 783 783 782 782 782 782 781 781 781 780 780
755 757 758 759 760 760 761 762 762 764 765 767 768 769 771 772 774 775 776 777 777 779 779 781 782 783 784 784 785 786 786 787 787 787 788 788 788 788 788 788 788 788 788 787 787 786 786 786 785 785 785 784 784 784 783 783 783 783 782 782 782 782 782 781 781 780 780 780 779
756 757 759 759 761 761 762 763 763 764 766 768 769 770 772 773 774 775 776 777 778 779 780 781 782 783 784 784 785 786 786 786 787 787 787 787 787 787 787 787 787 787 787 787 787 786 786 785 785 785 784 784 784 783 783 783 782 782 782 782 782 781 781 781 780 780 779 779 779
756 758 759 760 761 762 763 764 765 766 767 769 770 771 773 774 775 776 777 778 779 780 781 782 782 783 784 784 785 785 786 786 786 786 787 787 787 787 787 787 787 786 786 786 786 786 786 785 785 785 784 784 784 783 783 783 782 782 782 781 781 781 780 780 780 779 779 779 779
757 759 759 760 761 762 764 765 766 768 769 770 771 772 773 774 776 777 778 779 779 780 781 782 783 783 784 784 785 785 786 786 786 786 786 786 786 786 786 786 786 786 786 786 786 786 785 785 785 784 784 784 783 783 783 782 782 782 781 781 781 780 780 780 779 779 779 778 778
758 759 760 761 762 764 765 766 768 769 770 771 772 773 774 775 776 777 778 779 779 780 781 782 783 784 784 784 785 785 786 786 786 786 786 786 786 786 786 785 785 785 785 785 785 785 785 785 784 784 784 784 783 783 783 782 782 782 781 781 780 780 780 779 779 779 778 778 777